User: anonymous   Login
Location: Catstown
(52.4386°N, 7.2633°W)
Time: 19:16:57
(UTC+00:00)
Language:

CZ-2C R/B - Orbit

View from above orbital plane
View from above orbital plane
View from above satellite
View from above satellite

Ground track
Ground track

The orbit data is extracted from the following two-line orbital elements,

1 28480U 04046B   20330.69960347  .00000031  00000-0  26379-4 0  9993
2 28480  98.0637 353.0266 0143079 107.4418   4.5356 14.25734130833413
Epoch (UTC): 25 November 2020 16:47:25
Eccentricity: 0.0143079
inclination: 98.0637°
perigee height: 703 km
apogee height: 909 km
right ascension of ascending node: 353.0266°
argument of perigee: 107.4418°
revolutions per day: 14.25734130
mean anomaly at epoch: 4.5356°
orbit number at epoch: 83341

The dashed part of the orbit path shows where the satellite is in the earth's shadow,  

DLR